Location: Carrières
(48.9495°N, 2.0407°E)
Time: 23:24:48
(UTC+00:00)

Cosmos 407 Rocket - Pass Details

Date: 28 January 2023
Orbit: 742 x 786 km, 74.0° (Epoch: 01 April)

Event Time Altitude Azimuth Distance (km) Brightness Sun altitude
Rises 19:20:52 0° 219° (SW) 3,198 7.2 -26.0°
Reaches altitude 10° 19:23:19 10° 226° (SW) 2,272 6.5 -26.4°
Maximum altitude 19:28:16 47° 300° (WNW) 991 4.3 -27.2°
Enters shadow 19:30:52 26° 360° (N) 1,462 4.9 -27.6°
